SCP
1 1 2 2 1 0 0 0 0 0 0 0 0 0 0 1 2 2 3 3 4 4 5 5 5 6 5 4 3 3 3 3 2 2 3 3 3 3 2 2 2 2 1 1 1 1 1 1 1
1 2 2 2 1 0 0 0 0 0 0 0 0 0 1 1 2 3 3 4 4 5 5 5 6 6 5 4 3 3 3 3 2 2 3 3 3 2 2 2 2 2 1 1 1 1 1 1 1
2 2 2 1 1 0 0 0 0 0 0 0 0 1 1 2 3 3 4 4 5 5 5 6 6 6 5 4 3 3 3 3 3 2 2 2 2 2 2 2 2 2 2 2 2 1 1 1 1
3 2 2 1 0 0 0 0 0 0 0 0 0 1 3 4 4 3 4 4 5 5 6 6 7 7 6 5 4 4 4 3 3 3 2 2 2 2 2 2 2 2 2 2 2 1 1 1 1
3 2 1 1 0 0 0 0 0 0 0 0 1 2 4 5 4 3 4 4 5 5 6 6 7 7 7 6 5 4 4 4 3 3 2 2 2 2 2 2 2 2 2 2 2 1 1 1 1
2 2 1 0 0 0 0 0 0 0 0 0 1 3 5 5 4 4 5 5 5 5 6 6 6 7 7 7 6 5 4 4 4 3 3 2 2 2 2 2 2 2 2 2 2 2 1 1 1
2 1 1 0 0 0 0 0 0 0 0 1 1 3 4 5 5 5 6 6 5 6 6 6 6 6 7 7 7 6 5 4 4 4 3 2 2 2 2 2 3 2 2 2 2 2 1 1 1
1 1 0 0 0 0 0 0 0 0 0 1 2 3 4 5 6 6 7 6 5 6 7 7 6 6 6 7 6 6 5 4 4 4 3 3 2 2 2 2 2 2 2 2 2 2 1 1 1
1 1 0 0 0 0 0 0 0 0 1 1 2 3 4 5 6 6 6 5 5 6 7 7 6 6 6 6 6 5 4 4 4 4 4 3 3 2 2 2 2 2 2 2 2 2 1 1 1
1 0 0 0 0 0 0 0 0 1 1 1 3 4 5 6 6 5 5 5 5 6 7 7 6 6 6 6 6 5 5 4 4 4 4 3 3 2 2 2 2 2 2 2 2 2 2 1 1
1 0 0 0 0 0 0 0 1 1 1 1 2 3 4 4 4 4 5 4 4 5 7 7 6 6 6 6 6 5 5 5 4 4 4 3 3 3 2 2 2 2 2 2 2 2 1 1 1
0 0 0 0 0 0 0 0 0 0 0 1 2 2 3 3 3 4 4 4 4 4 6 6 6 6 6 7 6 5 5 5 5 4 4 3 3 3 2 2 2 2 2 2 2 2 1 1 1
0 0 0 0 0 0 0 0 0 0 1 2 3 3 2 2 3 3 4 4 4 4 4 5 5 5 6 6 6 5 5 6 5 4 4 4 3 3 2 2 2 1 2 2 2 2 1 1 1
0 0 0 0 0 0 0 0 0 0 1 2 3 3 3 2 2 3 3 3 4 4 4 5 4 4 5 6 5 5 5 5 5 4 4 4 3 3 3 2 2 1 1 2 2 2 2 1 1
0 0 0 0 0 0 0 0 0 1 1 2 2 3 3 2 2 2 3 3 3 4 5 5 4 3 3 4 4 4 4 4 4 4 4 4 4 3 3 3 2 1 2 2 3 2 2 1 0
0 0 0 0 0 0 0 0 0 1 1 2 2 2 3 3 2 3 3 3 3 4 5 5 3 2 3 3 3 3 3 4 4 4 4 4 4 4 4 3 2 2 2 2 2 2 2 1 0
0 0 0 0 0 0 0 0 0 1 1 1 1 2 3 3 2 3 3 3 4 4 5 4 3 2 3 3 2 2 2 3 3 3 3 3 3 4 3 3 2 2 2 2 2 2 1 0 0
0 0 0 0 0 0 0 0 0 1 1 1 1 2 2 3 2 2 3 3 4 4 4 4 3 3 3 2 2 1 2 2 6 8 6 3 3 3 3 2 2 2 2 2 2 1 1 0 0
0 0 0 0 0 0 0 0 0 1 1 1 1 1 2 2 2 3 3 3 3 4 4 3 3 3 3 2 1 1 1 1 7 13 8 3 2 2 2 2 2 3 2 2 2 1 1 0 0
0 0 0 0 0 0 0 0 0 0 1 1 1 1 2 2 3 3 3 3 3 3 3 4 4 3 2 1 1 1 1 1 4 7 5 2 1 1 1 2 2 2 2 2 2 1 1 0 0
0 0 0 0 0 0 0 0 0 0 0 0 0 1 1 2 3 3 3 3 3 3 3 4 4 3 2 1 1 1 1 1 1 1 1 0 0 0 1 1 1 2 2 2 1 1 1 0 0
0 0 0 0 0 0 0 0 0 0 0 0 0 0 1 2 2 3 3 3 3 3 3 3 3 2 2 1 1 1 1 1 1 1 0 0 0 0 0 0 1 1 1 1 1 1 1 0 0
0 0 0 0 0 0 0 0 0 0 0 0 0 0 1 1 2 2 2 3 3 3 3 3 2 2 2 1 1 1 1 1 1 1 0 0 0 0 0 0 0 0 1 1 1 1 1 1 0
0 0 0 0 0 0 0 0 0 0 0 0 0 0 1 1 2 2 2 3 3 3 3 3 2 2 1 1 1 1 1 1 1 1 1 0 0 0 0 0 0 0 0 0 0 0 0 1 1
0 0 0 0 0 0 0 0 0 0 0 0 0 0 1 1 1 1 2 2 2 3 3 3 2 2 1 1 1 1 1 1 1 1 1 1 1 1 0 0 0 0 0 0 0 0 0 0 0
0 0 0 0 0 0 0 0 0 0 0 0 0 0 1 1 1 1 1 1 2 2 2 2 2 2 1 1 1 1 1 1 1 1 0 0 1 1 1 0 0 0 0 0 0 0 0 0 0
0 0 0 0 0 0 0 0 0 0 0 0 0 0 0 0 0 0 1 1 1 2 2 2 1 1 1 1 1 1 1 0 0 0 0 0 0 1 1 1 0 0 0 0 0 0 0 0 0
0 0 0 0 0 0 0 0 0 0 0 0 0 0 0 0 0 0 0 1 1 1 2 1 1 1 0 0 0 0 0 0 0 0 0 0 0 0 1 1 0 0 0 0 0 0 0 0 0
0 0 0 0 0 0 0 0 0 0 0 0 0 0 0 0 0 0 0 0 0 1 1 1 1 0 0 0 0 0 0 0 0 0 0 0 0 0 0 0 0 0 0 0 0 0 0 0 0
0 0 0 0 0 0 0 0 0 0 0 0 0 0 0 0 0 0 0 0 0 0 1 1 1 0 0 0 0 0 0 0 0 0 0 0 0 0 0 0 0 0 0 0 0 0 0 0 0
Wind_Speed
12 11 7 2 3 5 9 7 4 3 2 1 3 3 3 4 4 6 3 5 7 8 8 7 7 7 7 7 7 7 7 8 8 8 8 8 8 8 9 9 9 9 9 9 10 10 10 10 10
10 8 4 3 5 7 8 7 5 3 1 2 2 2 2 4 6 7 4 6 7 8 7 7 7 7 7 7 7 7 7 7 8 8 8 8 8 8 8 8 8 8 9 9 9 10 9 9 9
11 7 4 3 6 9 6 3 3 1 0 1 1 3 2 3 5 4 4 6 7 7 7 7 7 7 7 7 7 7 7 7 7 8 8 7 8 8 8 8 8 8 8 9 9 9 9 9 9
4 3 3 5 10 10 6 3 1 1 0 1 1 2 3 5 3 4 4 6 7 7 7 7 7 7 7 7 7 7 7 7 7 7 8 7 7 7 7 8 8 8 8 8 8 8 8 8 8
3 3 5 7 12 8 4 4 2 1 1 1 1 1 2 3 5 6 4 5 6 7 7 7 7 7 7 7 7 7 8 8 8 7 7 7 7 7 7 8 8 7 7 7 7 8 8 8 7
3 3 5 9 10 7 5 5 3 0 1 1 0 1 2 3 4 4 4 5 6 7 7 6 7 7 7 7 7 7 8 8 8 7 6 6 7 7 7 8 7 7 7 7 7 7 7 7 6
3 3 7 9 8 7 5 4 3 1 2 1 2 0 3 3 3 3 4 5 6 6 6 5 5 6 7 7 7 7 7 7 8 7 6 5 5 6 6 7 7 7 7 6 6 6 6 6 5
3 3 6 8 8 7 3 3 3 2 2 1 2 1 2 3 2 3 4 5 5 5 5 5 4 4 4 4 6 7 7 7 7 7 6 5 5 5 6 6 6 6 6 6 5 5 5 5 4
3 4 6 7 6 5 3 3 3 3 1 2 3 2 3 5 3 3 4 5 4 4 4 4 4 4 3 3 5 5 5 6 6 5 6 4 2 2 3 5 6 6 6 5 4 4 4 4 3
2 4 7 6 5 4 4 5 4 2 2 2 3 5 6 4 3 3 3 4 4 3 3 3 4 3 3 3 3 2 2 2 2 2 2 1 1 2 3 4 5 5 5 4 4 3 3 2 2
3 5 6 7 4 4 5 5 4 3 3 2 2 4 4 3 3 3 2 3 3 3 3 3 3 3 2 2 1 1 1 1 1 2 2 1 2 1 2 2 3 2 3 2 2 2 1 1 1
3 5 7 7 4 4 4 5 5 4 3 1 2 4 5 3 3 2 2 3 4 3 3 3 3 3 2 2 1 1 1 1 1 1 2 2 1 1 1 1 2 2 1 0 1 1 1 1 1
4 5 6 5 3 3 3 5 5 5 2 1 2 3 4 3 3 2 2 2 4 3 3 2 2 2 2 1 1 1 1 1 1 1 1 2 2 1 1 1 1 2 1 1 0 0 1 1 1
3 5 6 4 3 3 4 6 5 6 1 1 3 3 2 3 3 3 2 2 3 3 3 2 2 2 2 1 1 1 1 1 1 1 1 2 2 2 2 2 1 1 1 0 0 1 1 1 1
3 4 5 4 3 3 3 5 6 6 2 2 3 4 3 3 3 3 3 3 3 3 3 3 3 3 2 2 2 2 1 2 1 1 2 2 3 2 2 1 2 1 0 1 1 1 1 1 1
3 3 3 4 4 3 2 5 4 2 2 3 3 3 3 2 3 3 3 3 3 3 3 3 3 3 2 2 1 1 2 2 2 2 2 2 3 3 2 2 1 1 1 1 1 1 1 1 1
2 2 3 4 3 2 4 4 2 2 2 3 2 2 2 2 3 3 3 3 3 3 4 3 2 2 3 2 2 2 2 2 2 2 2 2 2 3 2 2 1 2 1 1 1 1 1 1 1
2 2 4 4 2 2 3 3 2 2 2 2 2 1 2 2 2 2 3 4 3 3 4 3 2 3 3 2 2 2 2 2 2 2 2 2 3 3 3 2 2 2 1 1 1 1 1 1 1
3 3 4 5 4 2 2 2 2 1 1 1 1 2 2 2 2 3 3 3 3 3 4 3 3 2 3 2 1 1 1 2 2 2 3 3 3 3 2 2 2 1 1 1 1 1 1 1 1
3 3 4 3 3 3 1 1 1 1 1 0 0 1 2 3 2 2 3 3 3 3 2 3 3 2 2 2 1 1 1 1 2 2 2 3 3 3 2 2 1 1 1 1 1 1 1 1 1
3 3 3 3 5 2 1 2 1 2 2 2 1 1 1 3 2 1 3 3 2 2 2 2 2 2 2 2 2 2 2 2 2 2 2 2 3 3 2 2 2 2 2 1 1 1 1 0 0
3 3 4 3 3 2 1 1 1 2 2 2 2 1 1 2 2 1 2 2 2 2 2 3 2 2 2 2 2 3 2 1 1 1 1 1 2 2 2 2 2 2 2 2 1 1 1 1 0
3 5 6 5 3 1 2 1 2 2 1 1 1 2 2 2 2 1 1 2 2 2 2 2 2 2 2 2 2 2 2 1 1 2 2 2 2 2 2 2 2 2 1 2 2 1 1 1 1
4 4 4 3 1 1 3 2 2 1 1 0 1 2 1 2 2 2 2 3 2 2 2 2 2 2 2 2 2 2 3 2 2 2 1 1 1 1 2 2 1 1 1 1 2 1 1 1 1
3 2 2 1 0 2 1 1 1 0 2 2 2 2 1 1 1 2 2 2 2 2 2 1 2 2 2 2 2 2 2 1 1 1 1 1 0 1 1 1 1 1 1 1 1 1 1 1 1
2 1 0 1 1 2 1 2 1 2 3 3 3 3 2 2 1 1 1 1 1 1 2 1 1 2 2 2 2 2 1 1 1 1 0 0 0 0 1 0 0 0 1 1 1 1 1 1 1
2 1 2 1 2 1 2 2 1 3 4 4 4 3 3 2 2 1 1 1 1 1 1 1 2 2 2 1 1 1 1 1 1 1 1 1 1 1 1 0 0 0 0 0 0 1 0 0 0
2 2 1 1 1 1 2 1 1 1 2 3 3 3 2 3 3 3 2 1 0 1 1 1 2 2 2 2 1 1 1 0 0 1 1 1 1 1 1 0 0 0 0 0 0 1 1 1 1
1 1 2 2 2 1 2 2 3 2 2 3 3 3 3 3 2 2 3 2 1 1 1 1 2 2 2 1 1 1 1 1 1 0 1 1 1 1 0 0 0 0 0 0 0 1 1 0 1
1 1 0 0 3 2 1 3 1 3 3 3 4 4 3 3 3 2 2 2 1 1 1 1 1 2 1 1 1 1 1 1 1 1 1 1 1 1 1 1 0 0 0 0 1 0 1 1 1
Wind_Direction
293 275 258 245 233 225 234 238 248 258 251 338 6 360 18 16 34 103 129 88 92 105 111 108 89 86 95 101 102 102 116 119 117 115 114 110 107 104 101 99 96 93 89 88 88 86 85 83 79
287 282 262 233 228 223 231 227 237 264 323 22 15 13 21 62 68 96 99 92 97 101 108 105 87 82 88 98 98 98 105 118 120 120 116 111 109 107 105 103 99 95 89 86 87 86 86 86 82
274 269 252 228 228 228 226 195 199 220 87 14 1 2 20 52 76 87 95 104 100 101 105 102 89 83 83 92 101 98 96 106 120 121 119 114 110 109 107 102 98 94 90 87 86 88 89 88 84
274 243 236 232 232 237 245 236 179 280 237 91 82 62 63 35 63 88 100 104 105 106 104 105 90 85 83 86 95 98 95 92 103 117 119 118 115 112 109 105 99 95 91 90 89 90 89 88 85
253 235 217 227 237 242 257 272 222 228 251 162 128 109 67 59 79 98 98 98 101 103 104 111 94 87 83 82 85 93 94 92 89 99 115 120 117 114 113 108 102 99 96 95 93 93 93 91 87
255 236 218 225 234 237 242 271 276 244 291 296 92 157 103 90 82 94 94 94 94 101 106 113 100 89 83 80 82 88 93 90 86 87 102 116 121 117 114 112 107 104 101 99 98 99 97 94 89
263 252 234 236 240 241 236 258 269 250 254 281 320 250 127 98 77 93 93 93 94 100 107 111 113 102 89 79 79 82 90 92 88 82 86 98 114 120 119 114 111 107 104 100 98 101 102 100 96
281 273 245 241 243 249 253 267 277 298 291 327 354 103 144 127 98 86 89 91 94 97 102 106 102 102 102 93 81 81 85 91 89 84 78 82 99 119 118 110 112 111 108 105 104 108 110 109 109
277 246 242 243 246 261 298 319 318 327 340 354 15 43 106 123 113 97 100 94 92 94 100 99 93 91 92 99 91 91 91 95 94 91 81 83 103 118 118 116 110 116 113 111 114 125 128 125 135
257 244 254 271 272 294 325 322 313 301 292 310 35 68 97 117 119 117 126 121 111 99 100 101 93 87 86 89 94 105 103 110 112 109 101 73 69 87 113 122 118 118 121 124 137 146 149 145 159
256 258 276 289 302 317 311 301 291 262 262 253 153 118 117 134 140 132 127 130 118 100 82 86 99 95 83 80 85 94 96 103 110 106 96 90 87 95 114 138 135 140 137 147 161 171 184 154 133
264 283 281 283 304 310 302 299 295 278 275 255 144 146 145 150 155 150 132 112 100 88 75 75 92 96 92 89 84 98 100 99 96 110 98 79 72 71 86 132 133 134 134 124 159 175 143 136 129
258 271 284 294 310 304 302 287 289 286 289 217 133 126 149 153 152 144 120 105 101 89 67 53 77 90 84 91 84 80 102 89 87 82 92 87 85 79 81 78 107 112 105 115 350 105 125 122 112
265 274 281 287 298 289 276 282 280 272 253 157 152 159 170 164 156 139 129 115 106 93 72 55 49 67 64 49 61 73 73 88 94 74 71 79 79 71 65 78 73 95 114 117 58 46 55 72 74
246 259 277 263 253 248 281 285 257 253 217 217 189 177 186 176 148 134 136 130 117 103 82 61 52 50 56 41 41 52 56 64 77 79 71 75 72 70 69 80 79 64 82 83 69 45 44 54 50
244 254 271 262 230 229 242 258 263 238 202 226 219 186 183 165 132 116 112 111 106 99 88 66 52 50 53 58 52 51 51 52 51 67 66 73 73 64 69 62 74 58 47 52 77 91 62 56 53
220 260 268 282 226 219 228 254 266 291 228 220 227 171 147 118 97 98 110 113 106 104 98 79 56 53 49 51 69 67 63 60 46 44 60 61 71 65 68 66 58 66 68 49 22 75 95 88 57
266 273 282 282 273 253 244 257 285 253 248 221 216 163 133 115 96 92 97 106 113 110 106 97 71 50 51 46 63 60 53 58 56 42 38 51 55 53 57 67 53 59 79 68 37 22 71 106 108
287 273 276 285 300 309 236 254 294 21 253 244 203 161 135 127 88 83 86 94 105 100 104 106 91 63 59 55 58 69 51 49 54 52 40 45 57 53 54 55 54 46 92 108 102 46 77 91 95
298 280 285 304 349 327 250 263 262 220 205 255 153 137 120 112 102 96 97 96 101 105 106 106 104 92 76 64 44 106 100 79 70 59 47 42 54 55 51 52 48 22 51 81 85 90 62 63 80
285 279 297 318 331 278 226 281 144 109 84 48 22 86 106 123 130 107 121 119 102 104 101 89 95 89 75 69 66 67 60 52 49 47 45 45 54 54 51 46 42 20 30 73 84 94 100 142 22
284 310 303 285 310 281 303 285 266 128 77 36 5 33 45 98 114 106 97 107 111 107 100 93 88 77 69 82 88 89 85 76 45 55 52 40 58 55 50 51 50 35 20 11 38 71 72 123 160
298 310 288 266 268 307 268 231 272 128 75 11 21 45 36 60 89 81 76 105 101 103 101 102 97 83 72 72 90 96 85 60 59 60 59 43 48 55 58 59 57 39 15 2 357 38 58 93 138
313 309 286 262 222 262 234 203 277 144 202 212 91 72 48 44 72 72 55 77 81 96 97 101 107 90 81 72 76 84 86 72 73 68 57 38 36 40 46 59 66 48 28 16 357 6 42 65 89
347 11 4 349 237 242 181 166 251 133 93 104 125 111 87 68 68 73 64 70 71 94 94 104 115 104 91 77 65 61 75 97 103 86 73 51 25 14 353 45 50 69 55 34 7 10 11 23 45
296 352 182 267 250 305 343 233 198 85 80 93 106 105 88 72 76 74 79 86 80 102 114 116 114 102 92 86 73 62 46 61 68 51 32 22 327 314 356 49 32 29 61 30 4 339 336 14 12
323 294 290 285 270 249 234 181 85 49 54 55 66 70 60 43 36 58 77 91 101 102 121 138 131 107 98 96 102 93 70 42 36 8 13 15 355 349 10 97 103 38 44 154 338 295 218 200 251
316 329 335 303 291 258 244 217 264 0 17 41 47 47 39 33 23 24 31 35 65 112 123 122 113 110 99 95 95 73 59 52 48 31 12 346 326 335 345 331 62 78 21 26 39 318 264 206 212
336 342 304 280 274 254 255 277 1 20 357 11 27 31 22 19 12 8 5 15 28 68 101 125 124 106 106 111 86 69 50 11 6 25 335 309 314 318 307 263 155 151 52 12 164 308 318 314 319
276 264 292 258 292 288 262 267 20 46 25 16 10 15 15 14 2 9 7 15 32 62 68 100 131 125 113 118 95 76 49 18 6 353 330 324 319 314 301 283 193 221 212 253 222 241 301 269 280